Tracking 31032 objects as of 13-Jul-2025
HD Live streaming from Space Station
objects crossing your sky now

CZ-6A DEB

Track CZ-6A DEB now!
10-day predictions


NORAD ID: 54448
Int'l Code: 2022-151FY
Perigee: 819.6 km
Apogee: 854.4 km
Inclination: 98.8 °
Period: 101.5 minutes
Semi major axis: 7207 km
RCS: Unknown
Launch date: November 11, 2022
Source: People's Republic of China (PRC)
Launch site: Taiyaun Space Center, China (TSC)

Note: This is SATELLITE DEBRIS
Your satellite tracking list
Your tracking list is empty




NASA's NSSDC Master Catalog

Two Line Element Set (TLE):
1 54448U 22151FY  25194.29115296  .00000244  00000-0  13832-3 0  9992
2 54448  98.7659 202.6688 0024133 235.0698 124.8210 14.18670793137790
Source of the keplerian elements: AFSPC